Wetterdaten: aktuell Sonntag, 06.09.2026 14:03
Datum Zeit Temp. A. Feuchte A. Luftdruck Regen Wind Richtung Richtung Sonnenschein Regendauer Taupunkt Windchill
06.09.2026 14:03 22,8 °C 46 % 1023,7 hPa 0,0 mm 25,6 km/h (4 Bft) S 180 ° 5 min 0 min 10,6 °C 22,8 °C
06.09.2026 13:58 22,8 °C 48 % 1023,7 hPa 0,0 mm 15,2 km/h (3 Bft) W 275 ° 5 min 0 min 11,2 °C 22,8 °C
06.09.2026 13:53 23,0 °C 48 % 1023,7 hPa 0,0 mm 10,7 km/h (2 Bft) N-NO 30 ° 6 min 0 min 11,4 °C 23,0 °C
06.09.2026 13:48 22,3 °C 50 % 1024,8 hPa 0,0 mm 25,4 km/h (4 Bft) S-SW 200 ° 4 min 0 min 11,4 °C 22,3 °C
06.09.2026 13:43 22,3 °C 50 % 1024,8 hPa 0,0 mm 13,4 km/h (3 Bft) S 175 ° 6 min 0 min 11,4 °C 22,3 °C
06.09.2026 13:38 22,7 °C 50 % 1024,8 hPa 0,0 mm 12,4 km/h (2 Bft) S 190 ° 4 min 0 min 11,7 °C 22,7 °C
06.09.2026 13:33 21,7 °C 52 % 1023,9 hPa 0,0 mm 24,7 km/h (4 Bft) NW 320 ° 5 min 0 min 11,4 °C 21,7 °C
06.09.2026 13:28 21,6 °C 50 % 1023,9 hPa 0,0 mm 20,8 km/h (4 Bft) W-NW 295 ° 5 min 0 min 10,7 °C 21,6 °C
06.09.2026 13:23 22,3 °C 51 % 1023,8 hPa 0,0 mm 19,0 km/h (3 Bft) S 175 ° 5 min 0 min 11,7 °C 22,3 °C
06.09.2026 13:18 23,1 °C 51 % 1024,7 hPa 0,0 mm 4,6 km/h (1 Bft) S-SW 210 ° 5 min 0 min 12,4 °C 23,1 °C
06.09.2026 13:13 22,5 °C 54 % 1024,8 hPa 0,0 mm 15,6 km/h (3 Bft) O 85 ° 5 min 0 min 12,7 °C 22,5 °C
06.09.2026 13:08 22,1 °C 52 % 1024,9 hPa 0,0 mm 16,3 km/h (3 Bft) S 180 ° 6 min 0 min 11,8 °C 22,1 °C
06.09.2026 13:03 22,2 °C 52 % 1023,8 hPa 0,0 mm 17,0 km/h (3 Bft) W 265 ° 4 min 0 min 11,9 °C 22,2 °C
06.09.2026 12:58 22,2 °C 53 % 1023,8 hPa 0,0 mm 13,3 km/h (3 Bft) SO 145 ° 6 min 0 min 12,2 °C 22,2 °C
06.09.2026 12:53 21,7 °C 54 % 1023,9 hPa 0,0 mm 23,6 km/h (4 Bft) S-SO 155 ° 4 min 0 min 12,0 °C 21,7 °C
06.09.2026 12:48 22,5 °C 53 % 1024,8 hPa 0,0 mm 18,0 km/h (3 Bft) N 0 ° 5 min 0 min 12,4 °C 22,5 °C
06.09.2026 12:43 22,6 °C 53 % 1024,8 hPa 0,0 mm 13,4 km/h (3 Bft) NO 55 ° 6 min 0 min 12,5 °C 22,6 °C
06.09.2026 12:38 21,8 °C 55 % 1024,9 hPa 0,0 mm 15,4 km/h (3 Bft) N 350 ° 5 min 0 min 12,4 °C 21,8 °C
06.09.2026 12:33 21,7 °C 55 % 1023,9 hPa 0,0 mm 14,9 km/h (3 Bft) W 260 ° 5 min 0 min 12,3 °C 21,7 °C
06.09.2026 12:28 21,5 °C 54 % 1023,9 hPa 0,0 mm 9,6 km/h (2 Bft) NO 45 ° 5 min 0 min 11,8 °C 21,5 °C
06.09.2026 12:23 21,5 °C 56 % 1023,9 hPa 0,0 mm 18,8 km/h (3 Bft) S 175 ° 5 min 0 min 12,3 °C 21,5 °C
06.09.2026 12:18 20,5 °C 58 % 1025,2 hPa 0,0 mm 15,8 km/h (3 Bft) O-SO 110 ° 5 min 0 min 11,9 °C 20,5 °C
06.09.2026 12:13 20,2 °C 58 % 1025,2 hPa 0,0 mm 16,8 km/h (3 Bft) NW 310 ° 6 min 0 min 11,7 °C 20,2 °C
06.09.2026 12:08 20,4 °C 58 % 1025,2 hPa 0,0 mm 16,4 km/h (3 Bft) S-SW 195 ° 4 min 0 min 11,9 °C 20,4 °C
06.09.2026 12:03 20,8 °C 58 % 1024,1 hPa 0,0 mm 17,3 km/h (3 Bft) W-SW 240 ° 6 min 0 min 12,2 °C 20,8 °C
06.09.2026 11:58 19,9 °C 61 % 1024,2 hPa 0,0 mm 35,5 km/h (5 Bft) O-SO 120 ° 4 min 0 min 12,2 °C 19,9 °C
06.09.2026 11:53 20,6 °C 58 % 1024,1 hPa 0,0 mm 29,9 km/h (5 Bft) S 185 ° 5 min 0 min 12,0 °C 20,6 °C
06.09.2026 11:48 20,2 °C 59 % 1025,2 hPa 0,0 mm 29,8 km/h (5 Bft) S-SO 150 ° 5 min 0 min 11,9 °C 20,2 °C
06.09.2026 11:43 19,6 °C 61 % 1025,3 hPa 0,0 mm 28,6 km/h (5 Bft) S 190 ° 5 min 0 min 11,9 °C 19,6 °C
06.09.2026 11:38 19,4 °C 61 % 1025,4 hPa 0,0 mm 30,3 km/h (5 Bft) W 270 ° 5 min 0 min 11,7 °C 19,4 °C
06.09.2026 11:33 19,7 °C 63 % 1025,3 hPa 0,0 mm 14,9 km/h (3 Bft) S-SW 205 ° 5 min 0 min 12,5 °C 19,7 °C
06.09.2026 11:28 20,0 °C 62 % 1025,3 hPa 0,0 mm 26,3 km/h (4 Bft) S-SO 150 ° 6 min 0 min 12,5 °C 20,0 °C
06.09.2026 11:23 19,8 °C 62 % 1025,3 hPa 0,0 mm 26,2 km/h (4 Bft) O-SO 115 ° 5 min 0 min 12,3 °C 19,8 °C
06.09.2026 11:18 20,1 °C 63 % 1025,3 hPa 0,0 mm 20,6 km/h (4 Bft) S-SO 160 ° 5 min 0 min 12,8 °C 20,1 °C
06.09.2026 11:13 19,4 °C 64 % 1025,4 hPa 0,0 mm 11,3 km/h (2 Bft) S-SO 160 ° 5 min 0 min 12,4 °C 19,4 °C
06.09.2026 11:08 18,8 °C 64 % 1025,5 hPa 0,0 mm 16,3 km/h (3 Bft) N 0 ° 5 min 0 min 11,8 °C 18,8 °C
06.09.2026 11:03 19,3 °C 64 % 1025,4 hPa 0,0 mm 20,3 km/h (4 Bft) NW 325 ° 3 min 0 min 12,3 °C 19,3 °C
06.09.2026 10:58 19,0 °C 63 % 1025,5 hPa 0,0 mm 23,1 km/h (4 Bft) SO 125 ° 5 min 0 min 11,8 °C 19,0 °C
06.09.2026 10:53 19,6 °C 64 % 1025,3 hPa 0,0 mm 17,0 km/h (3 Bft) O-SO 120 ° 5 min 0 min 12,6 °C 19,6 °C
06.09.2026 10:48 18,9 °C 65 % 1025,5 hPa 0,0 mm 13,6 km/h (3 Bft) S-SO 150 ° 5 min 0 min 12,2 °C 18,9 °C
06.09.2026 10:43 18,9 °C 66 % 1025,5 hPa 0,0 mm 24,8 km/h (4 Bft) SO 140 ° 5 min 0 min 12,4 °C 18,9 °C
06.09.2026 10:38 18,2 °C 67 % 1025,6 hPa 0,0 mm 16,6 km/h (3 Bft) SO 145 ° 7 min 0 min 12,0 °C 18,2 °C
06.09.2026 10:33 18,2 °C 67 % 1026,7 hPa 0,0 mm 19,9 km/h (4 Bft) S-SO 150 ° 3 min 0 min 12,0 °C 18,2 °C
06.09.2026 10:28 18,2 °C 67 % 1026,7 hPa 0,0 mm 19,4 km/h (3 Bft) S-SO 155 ° 5 min 0 min 12,0 °C 18,2 °C
06.09.2026 10:23 17,9 °C 69 % 1026,7 hPa 0,0 mm 16,9 km/h (3 Bft) O-SO 105 ° 5 min 0 min 12,1 °C 17,9 °C
06.09.2026 10:18 17,4 °C 69 % 1025,8 hPa 0,0 mm 22,3 km/h (4 Bft) SO 145 ° 5 min 0 min 11,7 °C 17,4 °C
06.09.2026 10:13 17,6 °C 72 % 1025,7 hPa 0,0 mm 12,9 km/h (3 Bft) O-SO 110 ° 8 min 0 min 12,5 °C 17,6 °C
06.09.2026 10:08 17,0 °C 70 % 1025,8 hPa 0,0 mm 9,4 km/h (2 Bft) O-SO 105 ° 3 min 0 min 11,5 °C 17,0 °C
06.09.2026 10:03 17,0 °C 72 % 1026,9 hPa 0,0 mm 8,5 km/h (2 Bft) SO 130 ° 4 min 0 min 11,9 °C 17,0 °C
_ Min-Zeit 06:53 14:03 16:23 - 19:43 - - - - 06:53 06:53
Minimum _ 9,0 °C 46 % 1017,4 hPa - 0,0 km/h (0 Bft) - - - - 7,6 °C 9,0 °C
_ Max-Zeit 16:48 05:28 09:38 15:03 11:58 - - 07:58 15:03 15:03 16:48
Maximum _ 23,3 °C 92 % 1027,2 hPa 0,0 mm 35,5 km/h
O-SO (5 Bft)
- - 8 min 0 min 16,4 °C 23,3 °C
Durchschnitt _ 16,6 °C 74 % 1023,1 hPa #0,0 mm 7,4 km/h (2 Bft) NW - #7:10 h #0 min. 11,6 °C 16,6 °C